Member area
Imprimable
Mons, 25/03/2018, BEL - Semi-Marathon de Mons
List of reports > 21km - Result
Search: Page: [1]
350 Entries
 
Complains are not accepted anymore. Results are final.
PlaceNrNameAgeNATTeamTimeTkmMoy.ScrCity
1.1281HAEGEMAN Benoît33BELTOUS A BORD1:14:253:33 16.931ARQUENNES
2.677MULPAS Nicolas35BELBORN TO RUN1:15:223:36 16.723COLFONTAINE
3.1295MAHIA Sebastien32BELRUN ATTITUDE1:16:173:38 16.524NAMUR
4.544LEBLANC Renaud33BELJACO1:17:483:43 16.206VILLERS LA TOUR
5.372DURIN Christophe32BELJC QUIEVRAIN1:19:133:47 15.919ROISIN
6.867THIBEAU Maxime23BEL/1:19:453:48 15.8011BAISIEUX
7.98BRAQUET Martin21BELARCH1:19:453:48 15.8012HAVELANGE
8.1012PETIT Benoit37BELBMW LOUYET1:20:183:50 15.6915MONTIGNY-LE-TILLEUL
9.1172LOMBA Renaud39BELTRAKKS/ FCHA1:20:293:50 15.6617COUTHUIN
10.125CALIN Thomas34BELTCDM1:20:483:51 15.6018LA BOUVERIE
11.1256VAN DAMME Nicolas36BELRCBT1:22:513:57 15.2121WOLUWE SAINT LAMBERT
12.203COUGNEAU Vincent34BELOBJ1:23:263:59 15.1024ERQUENNES
13.1003HUET Ludovic34BELTRAKKS / ACCO1:23:544:00 15.0226L'ESCAILLERE
14.1170LOMBAERT Mathieu23BELRCBT1:23:584:00 15.0127BRUXELLES
15.644MÉGRET Alexandre25BELBERNITHORINX TEAM1:24:044:01 14.9928FRAMERIES
16.841SOTTIAU Julien35BELTRIGT1:24:074:01 14.9831HARCHIES
17.1060COLLETE Hugues37BELLES BOUFFIOLS1:24:124:01 14.9732BOUFFIOULX
18.819SCATLIFFE Danitza36BELRCBT1:24:144:01 14.9633AUDERGHEM
19.453GUELTON David37BELARAMIS RUNNING MONS1:24:184:01 14.9534CUESMES
20.1076DE CROMBRUGGHE Antoine27BELCOACHING ZONE TEAM1:24:214:01 14.9435WOLUWE SAINT LAMBERT
21.484HERMAN Jimmy37BELHAPPY DAYS FORCE TEAM1:24:334:02 14.9037FLINES LES MORTAGNE
22.845STAMATIOU Bruno37BEL1:24:534:03 14.8538BAUDOUR
23.737PETTEAU Adrien31BELRCBT1:25:114:04 14.7941HÉLÉCINE
24.1186MULPAS Cédric28BELURBAN TRI SPORTS1:25:134:04 14.7942HOUDENG-AIMERIES
25.120CABAREZ Alexis23BELVALENCIENNES TRIATHLON1:25:184:04 14.7743CRESPIN
26.931VERSTRAETEN Joachim24BELRCBT1:25:374:05 14.7246TERVUREN
27.419FRÈREJEAN Sébastien34BELHELHA1:25:524:06 14.6847CHAPELLE-LEZ-HERLAIMONT
28.87BOUDART Mathieu26BELR.C. PEISSANT1:26:034:06 14.6449HENNUYERES
29.153CASTIAU Arthur25BELJE COURS À INCOURT1:26:524:09 14.5151FRASNES LEZ GOSSELIES
30.212CRÉER Geoffrey33BELLES CHINCHINS1:27:004:09 14.4855DUISBURG
31.1059CHRISTIAENS Chris32BELCOACHING ZONE TEAM1:27:074:09 14.4656WATERLOO
32.1119EUGÈNE Pierre35BELMY RUN / I-CARE1:27:084:09 14.4657FAULX-LES-TOMBES
33.1155KNOOPS Jérémie29BELESM1:27:104:10 14.4658MONS
34.1125FLEURU Laurent37BELRUN IN MAROILLES1:27:404:11 14.3760MAROILLES
35.227CZEPAK Yannick33BELVERTIGO1:27:554:12 14.3362GHLIN
36.378DUVIVIER David36BELFIT&GO1:28:014:12 14.3263NOIRCHAIN
37.35AUBECQ Bertrand25BELTCDM1:28:424:14 14.2166HYON
38.625MARTINEZ Rodrigue28BELCOURIR A OBIES1:28:534:14 14.1869BAVAY
39.253DEGHISLAGE Christophe34BELINDIVIDUEL1:29:134:15 14.1273HOUDENG-GOEGNIES
40.470HANOT François21BEL1:29:144:15 14.1274GHLIN
41.122CAILLEAU Benjamin38BELTEAM SUZUKI BOI1:29:204:16 14.1175VILLEROT
42.61BERNIER Dimitri30BEL1:29:324:16 14.0777AVESNES SUR HELPE
43.290DEMOULIN Benoit37BEL1:29:334:16 14.0778MONS
44.721PARISIS Gauthier38BELBOUGOLE1:29:514:17 14.0383SAINT-SYMPHORIEN
45.413FOURDIN Vincent36BELKERVASSIN1:29:594:18 14.0087ATH
46.833SIMONET Thibault31BEL1:30:014:18 14.0088SCHAERBEEK
47.247DEDEYCKER Louis24BEL1:30:194:19 13.9591MONS
48.309DESART Julien29BELGTC1:30:344:19 13.9195LOBBES
49.787RICHARD Laurent34BEL1:30:534:20 13.8697SARS LA BRUYERE
50.454GUENFOUD Tahar38BELSPIBO1:31:054:21 13.8498CUESMES
51.587LOTTE Ayrton24BELNAC NIVELLES1:31:074:21 13.83100METTET
52.728PEETERS Frédéric37BEL1:31:114:21 13.82101CUESMES
53.1073DE ABREU Kenny27BEL1:31:134:21 13.82102MOUSCRON
54.571LEROY Vincent26BEL1:31:204:21 13.80103BOUSSU
55.339DOFNY Michael38BELRC PEISSANT1:31:214:21 13.79104MORLANWELZ
56.500IGLESIAS Nicolas25BELTRIATHLON DES SHARKS (CHI1:31:414:22 13.74105BUVRINNES
57.144CARLOT Miguel32BEL1:32:344:25 13.61112LUSTIN
58.1274WAUTRIN Jerome33BELSAINT-REMY-DU-NORD1:32:564:26 13.56116SAINT-REMY-DU-NORD
59.1142GRIGIS Loic38BEL1:33:014:26 13.55117SAINT GÉRARD
60.699OGER Cedric37BEL1:33:124:27 13.52120HAVRE
61.1199PEREIRA AGOSTINHO Ricardo35BEL1:33:144:27 13.52121SCHAERBEEK
62.480HENNEBERT Bertrand38BELARAMIS RUNNING MONS1:33:154:27 13.51122SAINT-SYMPHORIEN
63.675MULLENDER Christophe35BEL1:33:204:27 13.50124GOEGNIES-CHAUSSÉE
64.1039BOUNA Omar38BELFORGITAL DEMBIERMONT1:33:224:27 13.50125HAUTMONT
65.754POLIZZI Federico31BELLES BOUFFIOLS1:33:374:28 13.46127COUILLET
66.213CRÉPIN Benoît36BEL1:33:444:28 13.44128PÉRUWELZ
67.1150HONOREZ Benoit30BELTEAM OMÉGA1:33:514:29 13.43129BAUDOUR
68.78BOMBLED Nicolas35BELCOACHING ZONE TEAM1:33:544:29 13.42131WOLUWE-SAINT-LAMBERT
69.997LHOIR Corentin27BELOBJ1:34:164:30 13.37132COLFONTAINE
70.152CASTELEYN Davy30BELEFC-ITC1:34:194:30 13.36133IZEGEM
71.561LEJEUNE Ludovic39BELRIWA1:34:234:30 13.35134WAVRE
72.917VAN PARIJS Pierre-Emmanuel30BELNAC1:34:424:31 13.31137LIMAL
73.280DELPIERRE Romain24BEL1:34:434:31 13.30138OTTIGNIES
74.1094DERZELLE Fabien37BELJOG HERMETON1:34:474:31 13.29140VODELÉE
75.947WATTIEZ Christophe35BELDECATHLON1:34:534:32 13.28143DOUR
76.1183MONTIGNY Pierre-Alexandre34BEL1:35:064:32 13.25144CAEN
77.1236SHAHRIYARI Sacha22BELSOUTIEN AUX SANS-PAPIERS/1:35:084:32 13.25145MONS
78.430GERIN Jason24BELHTT1:35:184:33 13.22146HAINE SAINT PAUL
79.332D'HONDT Quentin24BEL1:35:254:33 13.21147SOLRE-SUR-SAMBRE
80.402FLAVIGNY Vincent30BEL1:35:254:33 13.21148VALENCIENNES
81.449GOSSELIN Blaise38BELPASSENGER1:35:354:34 13.18154MONS
82.1096DE SMAELE Nicolas35BELSURICATES RUNNERS1:35:534:34 13.14161PEISSANT
83.593MABILLE Olivier39BELVERTIGO1:36:174:36 13.09169JURBISE
84.501INCORPORESANO Menssana37BELMP STUDIO DINANT1:36:204:36 13.08170ANHEE
85.910VAN LANDUYT Clement26BEL1:36:274:36 13.07173MONS
86.1294PETACCIA Laurent29BELDECATHLON1:36:364:36 13.04174
87.881TORRES MIRALLES Fèlix38BELDILBEEK ATLETIEK CLUB1:36:434:37 13.03176DILBEEK
88.73BOCKLANDT Julian36BELTHEODO TEMPO1:36:434:37 13.03177MONS
89.478HÉNAUT Louis23BELCCRUNNING1:36:564:37 13.00178DOUR
90.180COLLIGNON Brieuc29BELMYRUN NAMUR1:36:564:37 13.00179SPY
91.481HENRIET Alexandre36BELOBJ1:37:144:38 12.96185GHLIN
92.550LE COURTOIS Lucien20BELHELHA1:37:224:39 12.94186LE HAVRE
93.1153KABANDA Martin22BELSOUTIEN AUX SANS-PAPIERS/1:38:174:41 12.82203CHARLEROI
94.256DEGREVE Sebastien31BELNAC1:38:244:42 12.81205PETIT-ROEULX-LEZ-NIVELLES
95.732PÉPIN Sylvian35BEL1:38:284:42 12.80207MONTIGNIES-SUR-ROC
96.486HERMANS Mathieu31BEL1:38:534:43 12.74211LENS
97.252DEGHILAGE Gaetan30BELTCDM1:38:594:43 12.73212ONNEZIES
98.76BOECKMANS Damien35BEL1:38:594:43 12.73213BINCHE
99.1071DARDENNE Quentin37BELARAMIS RUNNING MONS1:39:134:44 12.70217HAVRÉ
100.337DIRICQ Johann30BEL1:39:164:44 12.69218TOURNAI
101.388FAGNOT Fabien38BELFABIEN FAGNOT1:39:394:45 12.65221MONS
102.1038BOSSER Tristan22BELHEXASANTE1:39:504:46 12.62224SARS LA BRUYERE
103.374DUTILLEUL Loïc25BEL1:39:574:46 12.61227BRUGELETTE
104.1099DETEMMERMAN Jody38BELCROSSFIT MONS1:39:584:46 12.612287012
105.603MALJEAN Sebastien31BELDECATHLON1:40:314:48 12.54231QUAREGNON
106.200COSTANZO Erasmo35BELBOUFFIOLS1:40:484:48 12.50235VILLERS-POTERIE
107.775RAUCENT Maxime33BELBRISE LE SILENCE1:40:504:49 12.50236LOUVAIN LA NEUVE
108.329DEWINNE Julien30BEL1:40:514:49 12.50237SIRAULT
109.532LALLEMAND Thierry39BEL1:40:574:49 12.48238NIVELLES
110.899VANDENBUSSCHE Francois29BEL1:41:044:49 12.47241NEUFVILLES
111.304DERONNE Roman25BEL1:41:164:50 12.44244WATTRELOS
112.585LINET Jonathan32BEL1:41:244:50 12.432481800
113.385ESSER Thibaud20BEL1:41:264:50 12.42249TRÉLON
114.859TAIBI Julien27BELLES AMIS JOGGEURS1:41:274:50 12.42250TERTRE
115.106BRODELET Kevin28BELRMT1:41:304:50 12.41251BOIS DE LESSINES
116.885TRICOT Geoffrey29BEL1:41:504:51 12.37255BAUDOUR
117.134CAPORALE Julien30BEL1:41:534:52 12.37256CHATELET
118.209CRAPEZ Quentin29BELOBJ1:41:544:52 12.37257ONNEZIES
119.970ZWINGS Christophe34BELSILLYSPORT1:42:004:52 12.35258BASSILLY
120.1145HANQUET Yoni26BEL1:42:164:53 12.32261FLORENNES
121.331DHOLANDER Greg29BEL1:42:274:53 12.30264SOIGNIES
122.521KISS Laurent34BELFLEU1:42:284:53 12.30265FLEURUS
123.1162LEMOINE Michel38BEL1:42:294:53 12.30266VIEUX-CONDE
124.464HAMAIDE Jeremy25BEL1:42:334:53 12.29269LA HESTRE
125.601MAISSIN Hervé39BELARCH CINEY1:42:584:55 12.24280SORINNE-LA-LONGUE
126.1065CROISSIEAUX Samuel30BEL1:43:004:55 12.23281PÉRUWELZ
127.982MASSET Maxime20BELMASSET TERRASSEMENTS1:43:054:55 12.22283COLFONTAINE
128.351DUBOIS Julien30BEL1:43:104:55 12.21284MONS
129.185COOSEMANS Robin39BELASCA RUN1:43:214:56 12.19289SPIENNES
130.1175MAHBUB Samir32BELSOUTIEN AUX SANS-PAPIERS/1:43:264:56 12.18290BRAY
131.1056CHAREIL Benoit26BEL1:43:324:56 12.17291COMBS LA VILLE
132.1219ROCHEZ Benjamin31BELMARCHE NORDIQUE1:43:354:56 12.17293BINCHE
133.786RICCI Guillaume36BEL1:43:434:57 12.15297MONCEAU-SUR-SAMBRE
134.851STIEVENART Johan39BELARAMIS RUNNING MONS1:43:494:57 12.14299AULNOIS
135.1182MONTES SUAREZ Julien28BEL1:44:034:58 12.11303ITTRE
136.868THIELEMANS Fabien37BEL1:44:104:58 12.10304GHLIN
137.503JACQUEMIN Jordan32BELLES AMIS JOGGEURS1:44:224:59 12.07305JEMAPPES
138.308DESABLENS Gauthier32BELARCH1:44:224:59 12.07306ROCHEFORT
139.778RENARD Guillaume24BELSPIBO1:44:264:59 12.07307COLFONTAINE
140.821SCHELFAUT Ludovic30BEL1:44:324:59 12.06309HAUTRAGE
141.1021AVET Benoit33BELCC RUNNING TEAM1:44:334:59 12.05310HONNELLES
142.221CYPRÈS Axel26BEL1:44:344:59 12.05311MONS
143.192CORENTIN Guyot29BEL1:44:364:59 12.05312CARNIÈRES
144.546LECLERCQ Michael37BEL1:44:394:59 12.04314GOUTROUX
145.669MORENO-PASCUAL Anthony30BELATHLEDUWEB1:44:515:00 12.02316GOUTROUX
146.1098DESTERBECQ Jimmy28BELECLATÉS PÉRUWELZIENS1:44:525:00 12.02317ROUCOURT
147.1041BRILLE Christopher33BELLES ECLATES DE PERUWELZ1:44:535:00 12.01319HOLLAIN
148.276DELMAY Yaël37BELRJC MONS1:44:565:00 12.01321HARVENG
149.123CAILLEAU Maxime29BEL1:44:595:00 12.00323MONS
150.77BOITTE Logan20BELCC RUNNING TEAM1:45:055:01 11.99324COLFONTAINE
151.569RASSART Julien36BEL1:45:075:01 11.99325CASTEAU
152.533LAMBERT Frédéric33BELSTRONG VIKINGS1:45:305:02 11.94328BRAINE-LE-COMTE
153.315DESSY Marc27BEL1:45:395:02 11.93330TERTRE
154.462HAINAUT Hadrien31BEL1:45:415:02 11.92332LE ROEULX
155.691NOEL Maxime36BELDECATHLON1:45:415:02 11.92334DOUR
156.1222RONSMANS Michel34BELGANT1:45:505:03 11.91337MEISE
157.394FARRUGIA Christopher28BEL1:45:585:03 11.89341SENEFFE
158.322DETOURNAY Fabien31BEL1:46:035:03 11.88342ROUX
159.848STEVENS Emeric20BELHELHA1:46:115:04 11.87346MOULBAIX
160.915VANOOTEGHEM Pierre29BELJCL1:46:145:04 11.86347MOUSCRON
161.1208POT Meryl39BELMERYL POT1:46:365:05 11.82351ONNEZIES
162.24AGOSTI Lorenzo32BELMAUBEUGE MARATHON1:46:395:05 11.82352JEUMONT
163.823SCIULLO Frederic35BELFAMILY RUNNERS TEAM1:46:415:05 11.81354WANFERCEE-BAULET
164.631CASU Massimo35BELLES AMIS JOGGEURS1:46:435:05 11.81355HAUTRAGE
165.368DUPONT Nicolas39BELDECATHLON1:46:545:06 11.79357SOIGNIES
166.187CORDELIER Stéphane36BELFORGITAL DEMBIERMONT1:46:555:06 11.79358HAUTMONT
167.895VALDENAIRE Alexandre28BEL1:47:035:06 11.77360HYON
168.761PRACON Nicolas39BEL1:47:055:06 11.77363MONS
169.1288COLLURA Angelo33BELLES AMIS JOGGEURS1:47:115:07 11.76368BOUSSU
170.307DERUDDER Aubert30BEL1:47:125:07 11.76370SAINT-GHISLAIN
171.211CRAVOTTA Salvatore33BELVILLE DE MONS1:47:305:08 11.72380JEMAPPES
172.950WAUTIER Aurélien23BELCC RUNNING TEAM1:47:335:08 11.72381DOUR
173.216CUMBO Gaetan33BEL1:47:345:08 11.71383AVESNES LES AUBERT
174.576LHERMITTE Jimmy36BELCHPARTIATES1:47:405:08 11.70384TOURCOING
175.1180MOL Jenathan24BEL1:47:435:08 11.70385SOIGNIES
176.854SUDIRO Jordan35BEL1:47:445:08 11.70387BOUSSU
177.161CHAKIR Ahmed29BELSURICATES RUNNERS1:47:545:09 11.68388FRAMERIES
178.54BELFIORE Pietro37BELLES AMIS JOGGEURS DE SAIN1:48:125:10 11.65393CUESMES
179.560LEJEUNE Francois36BEL1:48:145:10 11.64395MEUX
180.226CZEKALSKI Alexis35BEL1:48:145:10 11.64396WASMES
181.370DUPUIS Laurent38BEL1:48:215:10 11.63402QUAREGNON
182.429GENIQUE Boris28BELQUEVY’RUN1:48:255:10 11.62406QUEVY-LE-PETIT
183.404FONLUPT Aurelien28BEL1:48:275:10 11.62408ENGHIEN
184.27AMAND Nicolas26BEL1:48:365:11 11.60413JURBISE
185.967ZIBANI Kaïs34BELOBJ1:48:375:11 11.60414PÂTURAGES
186.643MEESSEN Thomas25BEL1:48:485:11 11.58422BRY
187.498HUBERT Mathieu38BELMENNE TEAM1:48:515:11 11.58424MONS
188.979BARBERA Gilles37BEL1:49:095:12 11.54431BOUSSU
189.165CHARLIER Emilien25BEL1:49:115:12 11.54435BAULERS
190.113BURION Thomas36BELDECATHLON1:49:115:12 11.54436NIMY
191.1006DASCOTTE Quentin26BELECAU RUNNING TEAM1:49:135:13 11.54438ECAUSSINNES
192.1092DEQUÉVY Sébastien26BELECAU RUNNING TEAM1:49:135:13 11.54439ECAUSSINNES
193.809SADIN Jerome31BELLES CHOCAPIX1:49:175:13 11.53441ESPLECHIN
194.220CUSSE Kevin33BEL1:49:185:13 11.53442QUÉVY-LE-PETIT
195.863TAOURIRT Hassen36BEL1:49:305:13 11.51448LILLE
196.311DESCHOENMAEKERS Kevin29BELRUNNING CLUB METTET1:49:325:13 11.50449ROSÉE
197.744PIRNACI Gaetano34BELARAMIS RUNING MONS1:49:515:14 11.47451FRAMERIES
198.46BARON Gaëtan27BELCOURIR À OBIES1:49:515:14 11.47452VILLEREAU
199.202COUDOU Thomas24BEL1:49:565:15 11.46454MONTIGNY-LE-TILLEUL
200.283DELSOIR Quentin26BEL1:50:165:16 11.43458THULIN
201.373DUSSART Olivier36BELMOHA1:50:185:16 11.42461CIPLY
202.476HELINCK Arnaud33BEL1:50:205:16 11.42462ANDERLECHT
203.637MATON Nicolas22BEL1:50:215:16 11.42463BAISIEUX
204.641MEDDOUR Madjid34BELDECATHLON1:50:285:16 11.41466JEMAPPES
205.727PEETERS Fred39BELZATOPEK NAMUR1:50:325:16 11.40468BOUGE
206.772RAPHAËL Van Velthem34BELJET1:50:525:17 11.37476REBECQ
207.579LIBERATI Anthony31BEL1:50:545:17 11.36477BOUSSU
208.168CHOQUET Geoffroy30BELGSA1:50:565:17 11.36478MAURAGE
209.996DE VOS Denis38BELDENIS DE VOS1:50:585:18 11.36480MONS
210.215CUBEDDU Anthony27BEL1:51:105:18 11.34483LOBBES
211.52764BASILE Damien39BELDECATHLON1:51:105:18 11.34484SAINT GHISLAIN
212.906VAN EECKHOUT Antoine24BELSIRJANEECKHOUT FAMILY RUN1:51:105:18 11.33485SOIGNIES
213.382EL BAAMRANI Karim35BELSURICATES RUNNERS1:51:115:18 11.334867340
214.36AUDOOR Loïc27BEL1:51:215:19 11.32490SAINT-GILLES
215.1247TALLIH Issam29BELSOUTIEN AUX SANS-PAPIERS/1:51:435:20 11.28500CUESMES
216.94BOZO Christian35BEL1:51:545:20 11.26504JEMAPPES
217.68BLANCHART Nicolas33BEL1:52:075:21 11.24512MONS
218.1081DEHUT Jérémy29BELEUROVIA1:52:235:22 11.21523GHLIN
219.377DUVINAGE Matthieu32BEL1:52:285:22 11.20524ECAUSSINNES D'ENGHIEN
220.789RICHE Nicolas31BELNICOLAS RICHE1:52:445:23 11.18534OBOURG
221.826SECRET André38BEL1:52:505:23 11.17538BELOEIL
222.929VERNIER Quentin39BEL1:52:515:23 11.17539JENLAIN
223.945WATERLOT Grégory33BEL1:53:065:24 11.14544HAVAY
224.251DEGANSEMAN Michael39BELO'SPORT SWDE1:53:255:25 11.11551NEUFVILLES
225.626MARTIN Frederic33BEL1:53:365:25 11.09557LA LOUVIERE
226.363DUFRANE Nicolas38BEL1:53:395:25 11.09559MONS
227.230DALNE Thomas24BEL1:53:545:26 11.06568NIVELLES
228.1205PISCART Quentin31BEL1:54:085:27 11.04572OBOURG
229.1221ROLLAND Fabio33BELLES ÉCLATÉS PÉRUWELZIENS1:54:185:27 11.02578PÉRUWELZ
230.909VAN HOVE Jonas27BEL1:54:285:28 11.01581LEUVEN
231.55BELIC Marko28BEL1:54:545:29 10.97589TERTRE
232.158CENTRITTO Giosy39BEL1:54:585:29 10.96592HAVRE
233.1168LIEGEOIS Vincent38BELLES MOULES1:55:005:29 10.96593MONS
234.217CUMBO Paolo29BEL1:55:055:29 10.95596TERTRE
235.1255VAN BRANDT Léopold23BEL1:55:105:30 10.94600WEZEMBEEK-OPPEM
236.423GAILLIEZ Thibault39BEL1:55:165:30 10.93607MONS
237.65BEVILACQUA Raphaël39BEL/1:55:215:30 10.92608TRAZEGNIES
238.415FOURNEAU Xavier36BELFLEU1:55:235:30 10.92609AUVELAIS
239.1234SCREPEL Arnaud33BEL1:55:245:30 10.92611MONS
240.99BRASERO Nicolas33BEL1:55:275:30 10.91613BLATON
241.1068DAMANET Benjamin37BELJCPMF1:55:335:31 10.90615SARS-LA-BUISSIÈRE
242.900VANDERLINDEN Cédric37BELSANS CLUB1:55:435:31 10.89618SAINT-SYMPHORIEN
243.1064COUDOU Nicolas26BEL1:55:445:31 10.89619OVERIJSE
244.458HABETS Sébastien36BEL1:56:045:32 10.86628MONS
245.1030BELFIORE Alessandro32BELLESCHAISESCOURANTES1:56:065:32 10.85631COLFONTAINE
246.294DENEUFBOURG Guillaume38BEL1:56:075:32 10.85634BOUSSU
247.1028BAZZANELLA Gianfranco37BEL1:56:125:32 10.84637TRAZEGNIES
248.399FISICARO Jérôme36BELUAC1:56:225:33 10.83640RANSART
249.978JENART Joffrey31BEL1:56:235:33 10.83642QUEVY
250.862TANNIER Tommy24BELTHIBEAU RUNNING1:56:485:34 10.79644ANGRE
251.1016ALEXANDRE Mercier21BEL1:56:535:34 10.78646JURBISE
252.998LUST Arnaud38BEL1:56:575:35 10.77649MONS
253.847STEVENS Adrien20BELHELHA1:57:045:35 10.76653MOULBAIX
254.925VERHELST Jean-Michel36BEL1:57:115:35 10.75656ELLEZELLES
255.649MEMOINE Fabian37BEL1:57:175:36 10.74657THUMAIDE
256.271DEL GALDO Massimo38BEL1:57:185:36 10.74658OBOURG
257.738PIERARD Jeremy39BELELHERS DANLOS SYNDROME1:57:185:36 10.74659BOUSSU
258.266DELELIENNE Xavier39BEL1:57:215:36 10.74660OBOURG
259.456GÜNES Sinan Cem34BELI-CARE1:57:255:36 10.73663GENTBRUGGE
260.813SANTY Anthony35BELENDURANCE TEAM CHIÈVRES1:57:315:36 10.72668HOVES
261.1233SCHIETTECATTE Julien38BEL1:57:455:37 10.70676BRUXELLES
262.767QUINZIN Julien38BELGALOP ROMAIN BAVAISIEN1:57:515:37 10.69679BERMERIES
263.356DUCATILLON Maurice28BELMAURICE DUCATILLON1:58:065:38 10.67684MONS
264.107BROHEE Kevin32BELLES LOUPS1:58:085:38 10.67686BLAREGNIES
265.148CARROYER Riccardo26BELJUVENTUS1:58:155:38 10.66688JEMAPPES
266.1091DENIS Renard25BELMOI1:58:435:40 10.61703PÉRUWELZ
267.850STIERNON Gregory37BELGRÉGORY STIERNON1:58:595:40 10.59712COUR-SUR-HEURE
268.159CEREGHETTI Thomas28BEL1:59:015:41 10.597137141
269.206COULON David39BEL1:59:055:41 10.58717WATERLOO
270.1080DEGOBERT Julien38BEL1:59:155:41 10.57719JURBISE
271.59BENOÎT Mayeur36BEL1:59:225:42 10.56723MONS
272.1101DE VREESE Sébastien39BELJC ESTINNES1:59:225:42 10.56725SAINT-SYMPHORIEN
273.166CHASSE Pierre38BEL1:59:255:42 10.55727SPIENNES
274.537LANNOIS Vincent37BELFORGITAL DEMBIERMONT1:59:315:42 10.54730HAUTMONT
275.884TRESEGNIE Lionel38BEL1:59:405:42 10.53735MONS
276.56BELLEMONT Gregory33BEL1:59:575:43 10.50744VIEUX-GENAPPE
277.1253TRINTELER Simon24BELRCE2:00:095:44 10.49748TOURNAI
278.921VERBIEST Gilles34BEL2:00:115:44 10.49749ATTRE
279.984MASQUELIER-HUYS Robin37BELARAMIS RUNNING MONS2:00:185:44 10.47752HYON
280.472HANSEN Laurent38BELALC VIEUX CONDÉ2:00:205:44 10.4775359690
281.1077DEFER Jean Claude38BELARAMIS RUNNIG MONS2:00:255:45 10.46756NIMY
282.529LABYE Rémy24BEL/2:00:275:45 10.46761ROISIN
283.381EDDE Arnaud30BELMA PROPRE ÉQUIPE :D2:00:295:45 10.46762LA LOUVIÈRE
284.995DELROT Sebastien36BEL2:00:405:45 10.44770HAVAY
285.572LERUSTE Christophe37BELAMIS JOGGEURS2:00:445:45 10.44771SIRAULT
286.588LOUVAERT Michaël38BELMICHAEL LOUVAERT2:00:445:45 10.44772ST SYMPHORIEN
287.493HONOREZ Eric31BEL2:00:525:46 10.43775MONS
288.1279VINCENT Gauthier25BEL2:01:075:47 10.40780LOUVAIN-LA-NEUVE
289.660MOENS Frederic39BEL2:02:005:49 10.33790ZAVENTEM
290.115BUSCAIN Arnaud38BEL2:02:195:50 10.30798SAINT SYMPHORIEN
291.1100DEVLIEGER Arnaud21BELVERTIGO2:02:255:50 10.29802JURBISE
292.980WILANTE Christopher33BELSPIBO2:03:245:53 10.21817FLÉNU
293.724PATTYN Axel26BEL2:04:215:56 10.13839MONS
294.171CIANCIOTTA Karl34BELDECATHLON2:04:215:56 10.13840MAURAGE
295.477HELVENSTEIN Maxime31BEL2:04:275:56 10.13844MONS
296.636MATON Maxime25BEL2:05:135:58 10.06854BAISIEUX
297.371URBAIN William33BEL2:05:476:00 10.02869EUGIES
298.514JUVENT Gregory39BEL2:05:476:00 10.02870EUGIES
299.1025BARTHOLOME Sébastien30BEL2:05:496:00 10.02871FERRIERE LA GRANDE
300.1070DANGUY Benoît37BEL2:05:586:00 10.00872ATH
301.747PISCHETOLA Aurélien36BELSURICATES RUNNERS2:05:596:00 10.00875COLFONTANE
302.1020APRILE Michael36BELLES AMIS JOGGEURS2:06:136:01 9.98877NEUFVILLES
303.977VERVAET Aymeric36BEL2:06:226:02 9.97880GOEGNIES
304.612MARECAUX Julien25BELOCR BELGIUM WALLONIA2:07:126:04 9.91889WASMUEL
305.299DE PAEPE Alexandre27BEL2:07:526:06 9.85898WALCOURT
306.410FOUARGE Thomas34BELNAC2:07:586:06 9.85899BUZET
307.719PARADIS Nicolas25BEL2:07:596:06 9.85901BOUGNIES
308.64BETREMIEUX Guillaume38BEL2:08:006:06 9.84902ST AMAND LES EAUX
309.889TRYFONAS Eleftherios38BELTRIO STOOGES2:08:116:07 9.83907MONS
310.1276WILLEMART Jérémie26BEL2:08:206:07 9.82911PONDROME
311.607MANNINO Massimo39BELFER FRAMERIES2:09:066:09 9.76922FEIGNIES
312.223CYRAN Szymon20BEL2:09:516:11 9.70935MONS
313.365DUJARDIN Jordan30BEL2:10:016:12 9.69937PERUWELZ
314.916VANOVERSCHELDE Remy28BELQUÉVYRUN2:11:036:15 9.62948GENLY
315.357DUCHATELET Xavier28BEL2:11:506:17 9.56960FROYENNES
316.348DUBOISDENDIEN Noel32BELMÉMORIAL MATHIEU DESSORT 2:12:076:18 9.54962DOUR
317.839SORRIAUX Bryan26BEL2:12:126:18 9.53963THIEU
318.1019ANTACHEL Valodymyr38BELLESCHAISESCOURANTES2:12:126:18 9.53964COLFONTAINE
319.682NEVEUX Richard23BEL2:12:256:19 9.52971AUTREPPE
320.843SPECOGNA Albano36BELOCR BELGIUM WALLONIA2:14:046:24 9.40985HENSIES
321.38AUVERSACK Geoffrey35BEL2:14:146:24 9.39991SEILLES
322.352DUBOIS Marc35BELOCR BELGIUM WALLONIA2:14:206:24 9.38995QUAREGNON
323.1282BERTHAUT Cyril26BEL2:14:236:24 9.38997MONS
324.23ADAM Xavier-Gaetan34BEL2:14:366:25 9.361001FRAMERIES
325.873THYS David36BELLES AMIS JOGGEURS2:14:366:25 9.361002HORNU
326.835SIRJACOBS Martin22BELSIRJANEECKHOUT FAMILY RUN2:14:526:26 9.341005REBECQ
327.1169LIVIS Amaury25BELJCPMF LESSINES2:15:296:28 9.301014LESSINES
328.647MELCHIOR Nicolas39BEL2:17:316:33 9.161032VILLE-SUR-HAINE
329.800ROSS Reginald36BELDECATHLON2:20:016:41 9.001055MONSS
330.1230SAVOLDELLI Anthony32BEL2:20:086:41 8.991056QUAREGNON
331.367DUMORTIER Damien27BEL2:20:496:43 8.951062MONS
332.629MASSAUX Serge39BELSERGE MASSAUX2:21:456:45 8.891069GESVES
333.1209PRINCE Loïc25BEL2:21:566:46 8.881070QUIÉVRAIN
334.975DRUART Loïc30BELSTEP AND RUN2:22:486:48 8.821089FLÉNU
335.683NICODEME Julien32BEL2:22:526:49 8.821091MONS
336.971VERDELLI Gregory38BEL2:25:106:55 8.681109GHLIN
337.619MARMIGNON Ary35BELPOWERCROSS 56002:25:586:58 8.631113SENZEILLES
338.438GLAUDE Jeremy28BELTCDM2:26:517:00 8.581120CUESMES
339.725PAYEN Julien34BELLES AMIS JOGGEURS2:28:087:04 8.511126WASMES
340.343DOUMIT Christian31BEL2:34:237:22 8.161147GODARVILLE
341.807ROYER Julien32BEL2:37:057:29 8.021152GUSSIGNIES
342.278DELOIR Thomas24BEL2:38:417:34 7.941158TAISNIÈRES SUR HON
343.1245STOCK Mathieu28BEL2:40:337:39 7.851159SENEFFE
DNF163CHARLIER Anthony26BELMORIALME
DNF354DUBRUNFAUT Samuel38BELTAVIERS
DNF762PROESMANS Charles-Antoine26BELGOSSELIES
DNF816SAUVAGE Quentin24BELHANZINNE
DNF901VANDERLINDEN Tom20BELROMEDENNE
DNF920VERBIEST Cédric38BELATTRE
DNF52770VERMEULEN Geoffrey39BEL
DNF: did not finish; DSQ: disqualified; Speed in km/h
Page: [1]